Time,TemperatureF,DewpointF,PressureIn,WindDirection,WindDirectionDegrees,WindSpeedMPH,WindSpeedGustMPH,Humidity,HourlyPrecipIn,Conditions,Clouds,dailyrainin,SoftwareType,DateUTC
2013-10-13 00:01:00,45.5,34.4,30.19,North,-999,0.0,0.0,65,0.00,,,0.26,pywws,2013-10-13 05:01:00,
2013-10-13 00:16:00,46.6,35.5,30.19,North,-999,0.0,0.0,65,0.00,,,0.00,pywws,2013-10-13 05:16:00,
2013-10-13 00:21:00,46.6,35.5,30.19,North,-999,0.0,0.0,65,0.00,,,0.00,pywws,2013-10-13 05:21:00,
2013-10-13 00:36:00,46.4,34.5,30.20,North,-999,0.0,0.0,63,0.00,,,0.00,pywws,2013-10-13 05:36:00,
2013-10-13 00:41:00,46.4,34.5,30.20,North,-999,0.0,0.0,63,0.00,,,0.00,pywws,2013-10-13 05:41:00,
2013-10-13 01:01:00,45.3,33.9,30.21,North,-999,0.0,0.0,64,0.00,,,0.00,pywws,2013-10-13 06:01:00,
2013-10-13 01:11:00,45.0,33.9,30.22,North,-999,0.0,0.0,65,0.00,,,0.00,pywws,2013-10-13 06:11:00,
2013-10-13 01:16:00,44.8,34.1,30.22,North,-999,0.0,0.0,66,0.00,,,0.00,pywws,2013-10-13 06:16:00,
2013-10-13 01:21:00,44.8,34.1,30.22,North,-999,0.0,0.0,66,0.00,,,0.00,pywws,2013-10-13 06:21:00,
2013-10-13 01:36:00,44.4,34.2,30.22,North,-999,0.0,0.0,67,0.00,,,0.00,pywws,2013-10-13 06:36:00,
2013-10-13 01:41:00,44.4,34.2,30.22,North,-999,0.0,0.0,67,0.00,,,0.00,pywws,2013-10-13 06:41:00,
2013-10-13 01:56:00,44.1,34.2,30.23,North,-999,0.0,0.0,68,0.00,,,0.00,pywws,2013-10-13 06:56:00,
2013-10-13 02:01:00,44.1,34.2,30.23,North,-999,0.0,0.0,68,0.00,,,0.00,pywws,2013-10-13 07:01:00,
2013-10-13 02:16:00,43.9,34.0,30.24,North,-999,0.0,0.7,68,0.00,,,0.00,pywws,2013-10-13 07:16:00,
2013-10-13 02:21:00,43.9,34.0,30.24,North,-999,0.0,0.7,68,0.00,,,0.00,pywws,2013-10-13 07:21:00,
2013-10-13 02:36:00,43.3,33.9,30.24,North,-999,0.0,0.7,69,0.00,,,0.00,pywws,2013-10-13 07:36:00,
2013-10-13 02:41:00,43.3,33.9,30.24,North,-999,0.0,0.7,69,0.00,,,0.00,pywws,2013-10-13 07:41:00,
2013-10-13 02:56:00,42.8,33.7,30.24,North,-999,0.0,1.6,70,0.00,,,0.00,pywws,2013-10-13 07:56:00,
2013-10-13 03:01:00,42.8,33.7,30.24,North,-999,0.0,1.6,70,0.00,,,0.00,pywws,2013-10-13 08:01:00,
2013-10-13 03:16:00,42.6,34.2,30.24,North,-999,0.0,0.7,72,0.00,,,0.00,pywws,2013-10-13 08:16:00,
2013-10-13 03:21:00,42.6,34.2,30.24,North,-999,0.0,0.7,72,0.00,,,0.00,pywws,2013-10-13 08:21:00,
2013-10-13 03:36:00,42.8,34.1,30.24,SW,225,0.7,1.6,71,0.00,,,0.00,pywws,2013-10-13 08:36:00,
2013-10-13 03:41:00,42.8,34.1,30.24,SW,225,0.7,1.6,71,0.00,,,0.00,pywws,2013-10-13 08:41:00,
2013-10-13 03:56:00,42.4,34.1,30.26,West,270,0.7,1.6,72,0.00,,,0.00,pywws,2013-10-13 08:56:00,
2013-10-13 04:01:00,42.4,34.1,30.26,West,270,0.7,1.6,72,0.00,,,0.00,pywws,2013-10-13 09:01:00,
2013-10-13 04:16:00,42.4,34.4,30.26,NW,315,0.7,1.6,73,0.00,,,0.00,pywws,2013-10-13 09:16:00,
2013-10-13 04:21:00,42.4,34.4,30.26,NW,315,0.7,1.6,73,0.00,,,0.00,pywws,2013-10-13 09:21:00,
2013-10-13 04:36:00,42.3,34.2,30.26,West,270,0.7,1.6,73,0.00,,,0.00,pywws,2013-10-13 09:36:00,
2013-10-13 04:41:00,42.3,34.2,30.26,West,270,0.7,1.6,73,0.00,,,0.00,pywws,2013-10-13 09:41:00,
2013-10-13 05:01:00,42.1,34.1,30.27,North,-999,0.0,0.7,73,0.00,,,0.00,pywws,2013-10-13 10:01:00,
2013-10-13 05:11:00,41.5,33.5,30.27,North,-999,0.0,0.7,73,0.00,,,0.00,pywws,2013-10-13 10:11:00,
2013-10-13 05:16:00,41.0,33.4,30.27,North,-999,0.0,0.0,74,0.00,,,0.00,pywws,2013-10-13 10:16:00,
2013-10-13 05:21:00,41.0,33.4,30.27,North,-999,0.0,0.0,74,0.00,,,0.00,pywws,2013-10-13 10:21:00,
2013-10-13 05:36:00,39.2,32.6,30.27,North,-999,0.0,0.0,77,0.00,,,0.00,pywws,2013-10-13 10:36:00,
2013-10-13 05:41:00,39.2,32.6,30.27,North,-999,0.0,0.0,77,0.00,,,0.00,pywws,2013-10-13 10:41:00,
2013-10-13 05:56:00,38.3,33.0,30.28,North,-999,0.0,0.7,81,0.00,,,0.00,pywws,2013-10-13 10:56:00,
2013-10-13 06:01:00,38.3,33.0,30.28,North,-999,0.0,0.7,81,0.00,,,0.00,pywws,2013-10-13 11:01:00,
2013-10-13 06:21:00,38.5,33.5,30.29,North,-999,0.0,0.0,82,0.00,,,0.00,pywws,2013-10-13 11:21:00,
2013-10-13 06:31:00,38.5,33.8,30.29,North,-999,0.0,0.7,83,0.00,,,0.00,pywws,2013-10-13 11:31:00,
2013-10-13 06:36:00,38.3,33.6,30.30,North,-999,0.0,0.0,83,0.00,,,0.00,pywws,2013-10-13 11:36:00,
2013-10-13 06:41:00,38.3,33.6,30.30,North,-999,0.0,0.0,83,0.00,,,0.00,pywws,2013-10-13 11:41:00,
2013-10-13 06:56:00,38.1,33.7,30.30,North,-999,0.0,0.0,84,0.00,,,0.00,pywws,2013-10-13 11:56:00,
2013-10-13 07:01:00,38.1,33.7,30.30,North,-999,0.0,0.0,84,0.00,,,0.00,pywws,2013-10-13 12:01:00,
2013-10-13 07:16:00,38.5,34.1,30.30,North,-999,0.0,0.0,84,0.00,,,0.00,pywws,2013-10-13 12:16:00,
2013-10-13 07:21:00,38.5,34.1,30.30,North,-999,0.0,0.0,84,0.00,,,0.00,pywws,2013-10-13 12:21:00,
2013-10-13 07:41:00,38.5,34.1,30.32,North,-999,0.0,0.0,84,0.00,,,0.00,pywws,2013-10-13 12:41:00,
2013-10-13 07:51:00,38.7,34.3,30.32,North,-999,0.0,0.0,84,0.00,,,0.00,pywws,2013-10-13 12:51:00,
2013-10-13 07:56:00,38.8,34.4,30.32,North,-999,0.0,0.0,84,0.00,,,0.00,pywws,2013-10-13 12:56:00,
2013-10-13 08:01:00,38.8,34.4,30.32,North,-999,0.0,0.0,84,0.00,,,0.00,pywws,2013-10-13 13:01:00,
2013-10-13 08:16:00,40.8,35.8,30.33,North,-999,0.0,0.0,82,0.00,,,0.00,pywws,2013-10-13 13:16:00,
2013-10-13 08:21:00,40.8,35.8,30.33,North,-999,0.0,0.0,82,0.00,,,0.00,pywws,2013-10-13 13:21:00,
2013-10-13 08:36:00,44.8,37.3,30.34,North,-999,0.0,1.6,75,0.00,,,0.00,pywws,2013-10-13 13:36:00,
2013-10-13 08:41:00,44.8,37.3,30.34,North,-999,0.0,1.6,75,0.00,,,0.00,pywws,2013-10-13 13:41:00,
2013-10-13 08:56:00,45.9,36.6,30.35,North,-999,0.0,0.0,70,0.00,,,0.00,pywws,2013-10-13 13:56:00,
2013-10-13 09:01:00,45.9,36.6,30.35,North,-999,0.0,0.0,70,0.00,,,0.00,pywws,2013-10-13 14:01:00,
2013-10-13 09:16:00,48.7,39.0,30.36,North,-999,0.0,1.6,69,0.00,,,0.00,pywws,2013-10-13 14:16:00,
2013-10-13 09:21:00,48.7,39.0,30.36,North,-999,0.0,1.6,69,0.00,,,0.00,pywws,2013-10-13 14:21:00,
2013-10-13 09:36:00,48.0,38.0,30.37,North,-999,0.0,0.7,68,0.00,,,0.00,pywws,2013-10-13 14:36:00,
2013-10-13 09:41:00,48.0,38.0,30.37,North,-999,0.0,0.7,68,0.00,,,0.00,pywws,2013-10-13 14:41:00,
2013-10-13 09:56:00,50.4,39.0,30.37,North,-999,0.0,0.7,65,0.00,,,0.00,pywws,2013-10-13 14:56:00,
2013-10-13 10:01:00,50.4,39.0,30.37,North,-999,0.0,0.7,65,0.00,,,0.00,pywws,2013-10-13 15:01:00,
2013-10-13 10:16:00,53.2,40.6,30.37,NE,45,0.7,2.2,62,0.00,,,0.00,pywws,2013-10-13 15:16:00,
2013-10-13 10:21:00,53.2,40.6,30.37,NE,45,0.7,2.2,62,0.00,,,0.00,pywws,2013-10-13 15:21:00,
2013-10-13 10:36:00,55.2,40.3,30.38,North,-999,0.0,0.0,57,0.00,,,0.00,pywws,2013-10-13 15:36:00,
2013-10-13 10:41:00,55.2,40.3,30.38,North,-999,0.0,0.0,57,0.00,,,0.00,pywws,2013-10-13 15:41:00,
2013-10-13 10:56:00,55.4,40.4,30.38,North,-999,0.0,0.0,57,0.00,,,0.00,pywws,2013-10-13 15:56:00,
2013-10-13 11:01:00,55.4,40.4,30.38,North,-999,0.0,0.0,57,0.00,,,0.00,pywws,2013-10-13 16:01:00,
2013-10-13 11:16:00,56.8,38.4,30.38,North,-999,0.0,1.6,50,0.00,,,0.00,pywws,2013-10-13 16:16:00,
2013-10-13 11:21:00,56.8,38.4,30.38,North,-999,0.0,1.6,50,0.00,,,0.00,pywws,2013-10-13 16:21:00,
2013-10-13 11:36:00,57.9,36.1,30.38,North,-999,0.0,0.7,44,0.00,,,0.00,pywws,2013-10-13 16:36:00,
2013-10-13 11:41:00,57.9,36.1,30.38,North,-999,0.0,0.7,44,0.00,,,0.00,pywws,2013-10-13 16:41:00,
2013-10-13 11:56:00,59.7,36.6,30.37,North,-999,0.0,0.0,42,0.00,,,0.00,pywws,2013-10-13 16:56:00,
2013-10-13 12:01:00,59.7,36.6,30.37,North,-999,0.0,0.0,42,0.00,,,0.00,pywws,2013-10-13 17:01:00,
2013-10-13 12:16:00,66.2,35.5,30.37,North,-999,0.0,0.7,32,0.00,,,0.00,pywws,2013-10-13 17:16:00,
2013-10-13 12:21:00,66.2,35.5,30.37,North,-999,0.0,0.7,32,0.00,,,0.00,pywws,2013-10-13 17:21:00,
2013-10-13 12:36:00,65.1,33.7,30.36,North,-999,0.0,0.7,31,0.00,,,0.00,pywws,2013-10-13 17:36:00,
2013-10-13 12:41:00,65.1,33.7,30.36,North,-999,0.0,0.7,31,0.00,,,0.00,pywws,2013-10-13 17:41:00,
2013-10-13 12:56:00,65.3,33.1,30.35,North,-999,0.0,0.0,30,0.00,,,0.00,pywws,2013-10-13 17:56:00,
2013-10-13 13:01:00,65.3,33.1,30.35,North,-999,0.0,0.0,30,0.00,,,0.00,pywws,2013-10-13 18:01:00,
2013-10-13 13:16:00,67.8,35.2,30.34,North,-999,0.0,0.7,30,0.00,,,0.00,pywws,2013-10-13 18:16:00,
2013-10-13 13:21:00,67.8,35.2,30.34,North,-999,0.0,0.7,30,0.00,,,0.00,pywws,2013-10-13 18:21:00,
2013-10-13 13:26:00,66.9,32.7,30.34,North,-999,0.0,1.6,28,0.00,,,0.00,pywws,2013-10-13 18:26:00,
2013-10-13 13:37:00,67.6,33.4,30.33,North,-999,0.0,0.0,28,0.00,,,0.00,pywws,2013-10-13 18:37:00,
2013-10-13 13:47:00,67.6,35.1,30.32,North,-999,0.0,0.7,30,0.00,,,0.00,pywws,2013-10-13 18:47:00,
2013-10-13 13:57:00,68.9,30.6,30.32,North,-999,0.0,0.0,24,0.00,,,0.00,pywws,2013-10-13 18:57:00,
2013-10-13 14:07:00,68.9,31.6,30.32,North,-999,0.0,0.7,25,0.00,,,0.00,pywws,2013-10-13 19:07:00,
2013-10-13 14:17:00,68.2,32.9,30.32,SW,225,1.6,2.2,27,0.00,,,0.00,pywws,2013-10-13 19:17:00,
2013-10-13 14:27:00,68.2,31.0,30.31,North,-999,0.0,1.6,25,0.00,,,0.00,pywws,2013-10-13 19:27:00,
2013-10-13 14:37:00,66.7,31.7,30.32,SE,135,1.6,3.1,27,0.00,,,0.00,pywws,2013-10-13 19:37:00,
2013-10-13 14:47:00,69.3,32.9,30.32,North,-999,0.0,0.0,26,0.00,,,0.00,pywws,2013-10-13 19:47:00,
2013-10-13 14:57:00,68.9,30.6,30.32,North,-999,0.0,1.6,24,0.00,,,0.00,pywws,2013-10-13 19:57:00,
2013-10-13 15:07:00,71.4,32.7,30.32,North,-999,0.0,0.7,24,0.00,,,0.00,pywws,2013-10-13 20:07:00,
2013-10-13 15:17:00,71.1,31.4,30.32,North,0,0.7,2.2,23,0.00,,,0.00,pywws,2013-10-13 20:17:00,
2013-10-13 15:27:00,69.6,30.2,30.32,North,-999,0.0,0.7,23,0.00,,,0.00,pywws,2013-10-13 20:27:00,
2013-10-13 15:37:00,69.6,31.2,30.32,North,-999,0.0,1.6,24,0.00,,,0.00,pywws,2013-10-13 20:37:00,
2013-10-13 15:47:00,66.0,32.0,30.31,NE,45,0.7,2.2,28,0.00,,,0.00,pywws,2013-10-13 20:47:00,
2013-10-13 15:57:00,65.1,32.1,30.31,SW,225,0.7,2.2,29,0.00,,,0.00,pywws,2013-10-13 20:57:00,
2013-10-13 16:07:00,67.1,32.0,30.31,SE,135,1.6,2.2,27,0.00,,,0.00,pywws,2013-10-13 21:07:00,
2013-10-13 16:17:00,66.7,29.8,30.31,NE,45,1.6,2.2,25,0.00,,,0.00,pywws,2013-10-13 21:17:00,
2013-10-13 16:27:00,67.8,32.6,30.31,SW,225,0.7,1.6,27,0.00,,,0.00,pywws,2013-10-13 21:27:00,
2013-10-13 16:37:00,69.1,29.7,30.31,SE,135,0.7,1.6,23,0.00,,,0.00,pywws,2013-10-13 21:37:00,
2013-10-13 16:47:00,68.7,29.4,30.31,North,-999,0.0,0.0,23,0.00,,,0.00,pywws,2013-10-13 21:47:00,
2013-10-13 16:57:00,69.1,30.8,30.31,North,-999,0.0,1.6,24,0.00,,,0.00,pywws,2013-10-13 21:57:00,
2013-10-13 17:07:00,67.8,30.7,30.30,NE,45,2.2,3.1,25,0.00,,,0.00,pywws,2013-10-13 22:07:00,
2013-10-13 17:17:00,64.8,29.1,30.30,North,-999,0.0,0.7,26,0.00,,,0.00,pywws,2013-10-13 22:17:00,
2013-10-13 17:27:00,63.1,27.7,30.31,North,-999,0.0,0.7,26,0.00,,,0.00,pywws,2013-10-13 22:27:00,
2013-10-13 17:37:00,61.7,31.5,30.31,North,-999,0.0,0.0,32,0.00,,,0.00,pywws,2013-10-13 22:37:00,
2013-10-13 17:47:00,60.6,31.4,30.30,North,-999,0.0,0.0,33,0.00,,,0.00,pywws,2013-10-13 22:47:00,
2013-10-13 17:57:00,59.4,31.0,30.30,North,-999,0.0,0.0,34,0.00,,,0.00,pywws,2013-10-13 22:57:00,
2013-10-13 18:07:00,58.3,32.1,30.31,North,-999,0.0,0.0,37,0.00,,,0.00,pywws,2013-10-13 23:07:00,
2013-10-13 18:17:00,57.0,32.9,30.31,North,-999,0.0,0.0,40,0.00,,,0.00,pywws,2013-10-13 23:17:00,
2013-10-13 18:27:00,55.6,34.6,30.31,North,-999,0.0,0.0,45,0.00,,,0.00,pywws,2013-10-13 23:27:00,
2013-10-13 18:37:00,54.5,34.1,30.31,North,-999,0.0,0.0,46,0.00,,,0.00,pywws,2013-10-13 23:37:00,
2013-10-13 18:47:00,53.6,34.4,30.31,North,-999,0.0,0.0,48,0.00,,,0.00,pywws,2013-10-13 23:47:00,
2013-10-13 18:57:00,52.9,35.7,30.31,North,-999,0.0,0.0,52,0.00,,,0.00,pywws,2013-10-13 23:57:00,
2013-10-13 19:07:00,52.0,35.4,30.31,North,-999,0.0,0.7,53,0.00,,,0.00,pywws,2013-10-14 00:07:00,
2013-10-13 19:17:00,51.3,36.6,30.30,North,-999,0.0,0.0,57,0.00,,,0.00,pywws,2013-10-14 00:17:00,
2013-10-13 19:27:00,50.9,37.5,30.31,North,-999,0.0,0.0,60,0.00,,,0.00,pywws,2013-10-14 00:27:00,
2013-10-13 19:37:00,50.5,36.3,30.31,North,-999,0.0,0.0,58,0.00,,,0.00,pywws,2013-10-14 00:37:00,
2013-10-13 19:47:00,50.2,35.1,30.31,North,-999,0.0,0.0,56,0.00,,,0.00,pywws,2013-10-14 00:47:00,
2013-10-13 19:57:00,49.6,35.5,30.31,North,-999,0.0,0.0,58,0.00,,,0.00,pywws,2013-10-14 00:57:00,
2013-10-13 20:07:00,49.3,35.1,30.31,North,-999,0.0,0.0,58,0.00,,,0.00,pywws,2013-10-14 01:07:00,
2013-10-13 20:17:00,49.1,35.4,30.31,North,-999,0.0,0.0,59,0.00,,,0.00,pywws,2013-10-14 01:17:00,
2013-10-13 20:27:00,48.9,35.7,30.32,North,-999,0.0,0.0,60,0.00,,,0.00,pywws,2013-10-14 01:27:00,
2013-10-13 20:37:00,48.0,35.6,30.32,North,-999,0.0,0.0,62,0.00,,,0.00,pywws,2013-10-14 01:37:00,
2013-10-13 20:47:00,47.3,34.9,30.32,North,-999,0.0,0.0,62,0.00,,,0.00,pywws,2013-10-14 01:47:00,
2013-10-13 20:57:00,46.9,35.0,30.33,North,-999,0.0,0.0,63,0.00,,,0.00,pywws,2013-10-14 01:57:00,
2013-10-13 21:07:00,46.4,35.3,30.33,North,-999,0.0,0.0,65,0.00,,,0.00,pywws,2013-10-14 02:07:00,
2013-10-13 21:17:00,45.9,35.9,30.33,North,-999,0.0,0.0,68,0.00,,,0.00,pywws,2013-10-14 02:17:00,
2013-10-13 21:27:00,45.5,35.9,30.33,North,-999,0.0,0.0,69,0.00,,,0.00,pywws,2013-10-14 02:27:00,
2013-10-13 21:37:00,45.5,36.3,30.33,North,-999,0.0,0.0,70,0.00,,,0.00,pywws,2013-10-14 02:37:00,
2013-10-13 21:47:00,45.5,36.7,30.33,North,-999,0.0,1.6,71,0.00,,,0.00,pywws,2013-10-14 02:47:00,
2013-10-13 21:57:00,46.0,37.2,30.33,North,-999,0.0,0.0,71,0.00,,,0.00,pywws,2013-10-14 02:57:00,
2013-10-13 22:07:00,45.1,36.7,30.33,North,-999,0.0,0.0,72,0.00,,,0.00,pywws,2013-10-14 03:07:00,
2013-10-13 22:17:00,44.1,37.0,30.33,North,-999,0.0,0.0,76,0.00,,,0.00,pywws,2013-10-14 03:17:00,
2013-10-13 22:27:00,43.3,36.9,30.33,North,-999,0.0,0.0,78,0.00,,,0.00,pywws,2013-10-14 03:27:00,
2013-10-13 22:37:00,42.8,36.7,30.33,North,-999,0.0,0.0,79,0.00,,,0.00,pywws,2013-10-14 03:37:00,
2013-10-13 22:47:00,42.4,37.0,30.33,North,-999,0.0,0.0,81,0.00,,,0.00,pywws,2013-10-14 03:47:00,
2013-10-13 22:57:00,42.3,37.2,30.32,North,-999,0.0,0.0,82,0.00,,,0.00,pywws,2013-10-14 03:57:00,
2013-10-13 23:07:00,42.1,37.3,30.32,North,-999,0.0,0.0,83,0.00,,,0.00,pywws,2013-10-14 04:07:00,
2013-10-13 23:17:00,41.9,37.1,30.33,North,-999,0.0,0.0,83,0.00,,,0.00,pywws,2013-10-14 04:17:00,
2013-10-13 23:27:00,41.7,37.2,30.33,North,-999,0.0,0.0,84,0.00,,,0.00,pywws,2013-10-14 04:27:00,
2013-10-13 23:37:00,42.1,37.6,30.33,North,-999,0.0,0.0,84,0.00,,,0.00,pywws,2013-10-14 04:37:00,
2013-10-13 23:47:00,42.4,37.6,30.32,North,-999,0.0,0.0,83,0.00,,,0.00,pywws,2013-10-14 04:47:00,
2013-10-13 23:57:00,45.5,38.7,30.32,SE,135,0.7,3.1,77,0.00,,,0.00,pywws,2013-10-14 04:57:00,